Terug naar catalogus

FENGYUN 1C DEB

ActiefSSO
NORAD 30329·DEBRIS·🇨🇳 China

Gelanceerd May 10, 1999 vanaf Taiyuan Satellite Launch Center

Loading…

Volgende Passages (komende 24 uur)

TLE

VersSource: Space-Track

Epoch: Sep 13, 2026, 18:43 UTC

1 30329U 99025AAQ 26256.78011450  .00000302  00000-0  27339-3 0  9991
2 30329  99.2617 178.6233 0142155  18.2394   6.2438 13.86974112992238

Volg FENGYUN 1C DEB in realtime met AllMySat

Download on the App Store